• In Hungary
  • List of Countries
  • For 7 days
  • Water Temperature
  • Satellite Maps
  • Weather Map
  • News
  • Weather Widgets
  • user-avatar
    Login

    Hourly Weather Bortniki

    Today, 21 February, Wednesday

    Time Temperature Precipitation Wind Pressure Humidity
    00:00 -7°C° 0.1 mm 1 mps 741 mmHg 95%
    01:00 -7°C° 0.1 mm 1 mps 741 mmHg 95%
    02:00 -7°C° 0.1 mm 1 mps 741 mmHg 96%
    03:00 -7°C° 0.1 mm 1 mps 741 mmHg 96%
    04:00 -7°C° 0.1 mm 1 mps 741 mmHg 96%
    05:00 -7°C° 0.1 mm 1 mps 741 mmHg 96%
    06:00 -7°C° 0.1 mm 1 mps 741 mmHg 96%
    07:00 -7°C° 0.1 mm 1 mps 741 mmHg 96%
    08:00 -8°C° 0 mm 1 mps 741 mmHg 96%
    09:00 -7°C° 0.1 mm 1 mps 741 mmHg 95%
    10:00 -6°C° 0.1 mm 1 mps 741 mmHg 93%
    11:00 -6°C° 0.1 mm 1 mps 741 mmHg 92%
    12:00 -4°C° 0.1 mm 1 mps 741 mmHg 91%
    13:00 -4°C° 0.1 mm 1 mps 741 mmHg 90%
    14:00 -3°C° 0.1 mm 1 mps 741 mmHg 89%
    15:00 -6°C° 0.1 mm 2 mps 740 mmHg 90%
    16:00 -6°C° 0.1 mm 2 mps 740 mmHg 91%
    17:00 -7°C° 0.1 mm 2 mps 740 mmHg 92%
    18:00 -7°C° 0.1 mm 2 mps 741 mmHg 93%
    19:00 -8°C° 0.1 mm 2 mps 741 mmHg 94%
    20:00 -10°C° 0.1 mm 3 mps 741 mmHg 95%
    21:00 -10°C° 0 mm 3 mps 741 mmHg 95%
    22:00 -12°C° 0 mm 3 mps 741 mmHg 95%
    23:00 -12°C° 0 mm 3 mps 741 mmHg 95%

    Tomorrow, 22 February, Thursday

    Time Temperature Precipitation Wind Pressure Humidity
    00:00 -13°C° 0 mm 3 mps 742 mmHg 95%
    01:00 -13°C° 0 mm 3 mps 742 mmHg 95%
    02:00 -14°C° 0 mm 3 mps 742 mmHg 96%
    03:00 -14°C° 0 mm 3 mps 742 mmHg 95%
    04:00 -14°C° 0 mm 3 mps 742 mmHg 95%
    05:00 -15°C° 0 mm 3 mps 742 mmHg 95%
    06:00 -15°C° 0 mm 3 mps 742 mmHg 95%
    07:00 -15°C° 0 mm 3 mps 742 mmHg 95%
    08:00 -16°C° 0 mm 3 mps 742 mmHg 95%
    09:00 -15°C° 0 mm 3 mps 743 mmHg 94%
    10:00 -14°C° 0 mm 3 mps 743 mmHg 93%
    11:00 -14°C° 0 mm 3 mps 743 mmHg 92%
    12:00 -13°C° 0 mm 3 mps 743 mmHg 91%
    13:00 -13°C° 0 mm 3 mps 743 mmHg 90%
    14:00 -12°C° 0 mm 3 mps 743 mmHg 89%
    15:00 -12°C° 0 mm 3 mps 743 mmHg 90%
    16:00 -13°C° 0 mm 3 mps 743 mmHg 91%
    17:00 -12°C° 0 mm 2 mps 743 mmHg 91%
    18:00 -13°C° 0 mm 2 mps 743 mmHg 92%
    19:00 -14°C° 0 mm 2 mps 743 mmHg 93%
    20:00 -15°C° 0 mm 2 mps 743 mmHg 94%
    21:00 -15°C° 0 mm 2 mps 743 mmHg 95%
    22:00 -16°C° 0 mm 2 mps 743 mmHg 96%
    23:00 -17°C° 0 mm 2 mps 743 mmHg 96%

    Day after tomorrow, 23 February, Friday

    Time Temperature Precipitation Wind Pressure Humidity
    00:00 -17°C° 0 mm 2 mps 743 mmHg 96%
    01:00 -16°C° 0 mm 1 mps 743 mmHg 97%
    02:00 -16°C° 0 mm 1 mps 742 mmHg 97%
    03:00 -16°C° 0 mm 1 mps 742 mmHg 97%
    04:00 -16°C° 0 mm 1 mps 742 mmHg 97%
    05:00 -16°C° 0 mm 1 mps 742 mmHg 97%
    06:00 -16°C° 0 mm 1 mps 742 mmHg 97%
    07:00 -17°C° 0 mm 1 mps 742 mmHg 97%
    08:00 -17°C° 0 mm 1 mps 742 mmHg 97%
    09:00 -16°C° 0 mm 1 mps 742 mmHg 94%
    10:00 -14°C° 0 mm 1 mps 742 mmHg 92%
    11:00 -13°C° 0 mm 1 mps 742 mmHg 89%
    12:00 -12°C° 0 mm 1 mps 742 mmHg 87%
    13:00 -11°C° 0 mm 1 mps 742 mmHg 86%
    14:00 -10°C° 0 mm 1 mps 742 mmHg 84%
    15:00 -11°C° 0 mm 1 mps 741 mmHg 86%
    16:00 -12°C° 0 mm 1 mps 741 mmHg 88%
    17:00 -13°C° 0 mm 1 mps 741 mmHg 90%
    18:00 -14°C° 0 mm 1 mps 741 mmHg 91%
    19:00 -15°C° 0 mm 1 mps 741 mmHg 93%
    20:00 -15°C° 0 mm 1 mps 740 mmHg 94%
    21:00 -15°C° 0 mm 1 mps 740 mmHg 94%
    22:00 -16°C° 0 mm 1 mps 740 mmHg 94%
    23:00 -16°C° 0 mm 1 mps 740 mmHg 95%

    24 February, Saturday

    Time Temperature Precipitation Wind Pressure Humidity
    00:00 -18°C° 0 mm 2 mps 740 mmHg 95%
    01:00 -18°C° 0 mm 2 mps 740 mmHg 95%
    02:00 -18°C° 0 mm 2 mps 740 mmHg 95%
    03:00 -18°C° 0 mm 2 mps 741 mmHg 95%
    04:00 -21°C° 0 mm 3 mps 741 mmHg 95%
    05:00 -21°C° 0 mm 3 mps 741 mmHg 96%
    06:00 -21°C° 0 mm 3 mps 741 mmHg 96%
    07:00 -21°C° 0 mm 3 mps 742 mmHg 96%
    08:00 -21°C° 0 mm 3 mps 742 mmHg 96%
    09:00 -20°C° 0 mm 4 mps 743 mmHg 93%
    10:00 -19°C° 0 mm 4 mps 743 mmHg 91%
    11:00 -19°C° 0 mm 5 mps 743 mmHg 88%
    12:00 -18°C° 0 mm 5 mps 743 mmHg 87%
    13:00 -17°C° 0 mm 5 mps 743 mmHg 85%
    14:00 -17°C° 0 mm 5 mps 743 mmHg 83%
    15:00 -17°C° 0 mm 5 mps 743 mmHg 84%
    16:00 -17°C° 0 mm 5 mps 744 mmHg 85%
    17:00 -17°C° 0 mm 5 mps 744 mmHg 85%
    18:00 -18°C° 0 mm 5 mps 744 mmHg 87%
    19:00 -18°C° 0 mm 5 mps 744 mmHg 89%
    20:00 -18°C° 0 mm 4 mps 744 mmHg 90%
    21:00 -18°C° 0 mm 4 mps 745 mmHg 91%
    22:00 -18°C° 0 mm 4 mps 745 mmHg 91%
    23:00 -19°C° 0 mm 4 mps 745 mmHg 92%

    25 February, Sunday

    Time Temperature Precipitation Wind Pressure Humidity
    00:00 -19°C° 0 mm 4 mps 745 mmHg 93%
    01:00 -20°C° 0 mm 4 mps 745 mmHg 94%
    02:00 -19°C° 0 mm 3 mps 745 mmHg 94%
    03:00 -21°C° 0 mm 3 mps 745 mmHg 95%
    04:00 -21°C° 0 mm 3 mps 745 mmHg 95%
    05:00 -22°C° 0 mm 3 mps 745 mmHg 96%
    06:00 -22°C° 0 mm 3 mps 746 mmHg 96%
    07:00 -22°C° 0 mm 3 mps 746 mmHg 96%
    08:00 -23°C° 0 mm 3 mps 746 mmHg 97%
    09:00 -22°C° 0 mm 3 mps 746 mmHg 95%
    10:00 -21°C° 0 mm 3 mps 746 mmHg 93%
    11:00 -18°C° 0 mm 3 mps 746 mmHg 91%
    12:00 -18°C° 0 mm 3 mps 746 mmHg 89%
    13:00 -17°C° 0 mm 3 mps 746 mmHg 88%
    14:00 -16°C° 0 mm 3 mps 746 mmHg 86%
    15:00 -17°C° 0 mm 3 mps 746 mmHg 88%
    16:00 -16°C° 0 mm 2 mps 745 mmHg 89%
    17:00 -16°C° 0 mm 2 mps 745 mmHg 90%
    18:00 -18°C° 0 mm 2 mps 745 mmHg 92%
    19:00 -19°C° 0 mm 2 mps 745 mmHg 94%
    20:00 -20°C° 0 mm 2 mps 745 mmHg 96%
    21:00 -20°C° 0 mm 2 mps 745 mmHg 97%
    22:00 -21°C° 0 mm 2 mps 745 mmHg 97%
    23:00 -23°C° 0 mm 2 mps 745 mmHg 98%

    26 February, Monday

    Time Temperature Precipitation Wind Pressure Humidity
    00:00 -23°C° 0 mm 2 mps 745 mmHg 98%
    01:00 -23°C° 0 mm 2 mps 745 mmHg 98%
    02:00 -24°C° 0 mm 2 mps 745 mmHg 98%
    03:00 -24°C° 0 mm 2 mps 744 mmHg 98%
    04:00 -24°C° 0 mm 2 mps 744 mmHg 98%
    05:00 -25°C° 0 mm 2 mps 744 mmHg 98%
    06:00 -24°C° 0 mm 2 mps 744 mmHg 98%
    07:00 -24°C° 0 mm 2 mps 744 mmHg 97%
    08:00 -24°C° 0 mm 2 mps 744 mmHg 97%
    09:00 -21°C° 0 mm 2 mps 743 mmHg 95%
    10:00 -20°C° 0 mm 2 mps 743 mmHg 92%
    11:00 -18°C° 0 mm 2 mps 743 mmHg 90%
    12:00 -17°C° 0 mm 2 mps 743 mmHg 89%
    13:00 -16°C° 0 mm 2 mps 743 mmHg 88%
    14:00 -15°C° 0 mm 2 mps 742 mmHg 86%
    15:00 -15°C° 0 mm 2 mps 742 mmHg 88%
    16:00 -15°C° 0 mm 2 mps 742 mmHg 89%
    17:00 -15°C° 0 mm 2 mps 741 mmHg 90%
    18:00 -16°C° 0 mm 2 mps 741 mmHg 92%
    19:00 -15°C° 0 mm 1 mps 741 mmHg 93%
    20:00 -15°C° 0 mm 1 mps 741 mmHg 95%
    21:00 -16°C° 0 mm 1 mps 741 mmHg 95%
    22:00 -16°C° 0 mm 1 mps 741 mmHg 96%
    23:00 -18°C° 0 mm 2 mps 741 mmHg 96%
    Show more